This is the latest recevied weather packets stored in our database for station/object W7BL. If no packets are shown the sender has not sent any weather packets the latest 10 day(s).
| Time | Temp. | Humidity | Pressure | Rain* | Wind** | Luminosity | Snow |
|---|---|---|---|---|---|---|---|
| 1777597644 | 21.11° C | 27% | - | 0 mm | - | - | - |
| 1777597340 | 21.11° C | 27% | - | 0 mm | - | - | - |
| 1777597035 | 21.67° C | 28% | - | 0 mm | - | - | - |
| 1777596732 | 22.22° C | 27% | - | 0 mm | - | - | - |
| 1777596429 | 20.56° C | 26% | - | 0 mm | - | - | - |
| 1777596126 | 21.67° C | 26% | - | 0 mm | - | - | - |
| 1777595822 | 21.11° C | 25% | - | 0 mm | - | - | - |
| 1777595517 | 21.11° C | 28% | - | 0 mm | - | - | - |
| 1777595214 | 21.11° C | 26% | - | 0 mm | - | - | - |
| 1777594909 | 21.11° C | 27% | - | 0 mm | - | - | - |
| 1777594606 | 21.67° C | 27% | - | 0 mm | - | - | - |
| 1777594303 | 21.11° C | 29% | - | 0 mm | - | - | - |
| 1777593999 | 21.11° C | 28% | - | 0 mm | - | - | - |
| 1777593695 | 21.11° C | 28% | - | 0 mm | - | - | - |
| 1777593391 | 21.11° C | 28% | - | 0 mm | - | - | - |
| 1777593090 | 21.67° C | 29% | - | 0 mm | - | - | - |
| 1777592789 | 21.11° C | 28% | - | 0 mm | - | - | - |
| 1777592486 | 21.11° C | 28% | - | 0 mm | - | - | - |
| 1777592181 | 20.56° C | 28% | - | 0 mm | - | - | - |
| 1777591878 | 21.11° C | 28% | - | 0 mm | - | - | - |
| 1777591574 | 20.56° C | 28% | - | 0 mm | - | - | - |
| 1777591270 | 21.11° C | 26% | - | 0 mm | - | - | - |
| 1777590966 | 21.67° C | 26% | - | 0 mm | - | - | - |
| 1777590661 | 20.56° C | 28% | - | 0 mm | - | - | - |
| 1777590357 | 20.56° C | 28% | - | 0 mm | - | - | - |
* Rain latest hour (hover to see other rain measurements)
** Current wind speed in m/s (hover to see current wind gust speed)